Simultaneous Nadir Overpasses (SNOs) Predictions

Prediction of SNOs between NOAA-19 and TERRA Satellite Orbit:

Table of predicted SNOs for the next 14.0 days since TLE Epoch: 3/9/2015
Index Date (NOAA-19) Time (NOAA-19) Lat,Lon (NOAA-19) SZA (NOAA-19 ) Date (TERRA) Time (TERRA) Lat,Lon (TERRA) SZA (TERRA ) Distance(km) Time Diff (sec)
1 03/11/2015 05:53:54 72.43, 93.12 76.17 03/11/2015 05:55:00 72.35, 95.65 76.09 85.37 66
2 03/11/2015 06:44:37 -71.61, -98.01 104.68 03/11/2015 06:44:42 -71.59, -98.06 104.70 3.08 5
3 03/11/2015 07:35:27 70.90, 70.50 74.61 03/11/2015 07:34:19 70.96, 68.57 74.66 70.35 68
4 03/13/2015 11:28:07 -71.66,-168.95 105.49 03/13/2015 11:29:01 -71.67,-169.00 105.48 2.05 54
5 03/13/2015 12:19:08 71.56, -1.51 74.40 03/13/2015 12:18:28 71.58, -1.51 74.42 2.80 40
6 03/15/2015 17:02:38 71.65, -72.52 73.63 03/15/2015 17:02:47 71.65, -72.48 73.62 1.47 9
7 03/15/2015 17:53:32 -71.33, 95.33 106.72 03/15/2015 17:52:19 -71.43, 94.79 106.62 22.37 73
8 03/17/2015 21:46:07 71.70,-143.45 72.81 03/17/2015 21:47:06 71.70,-143.47 72.80 1.08 59
9 03/17/2015 22:37:06 -71.60, 23.99 107.31 03/17/2015 22:36:36 -71.59, 23.97 107.33 1.73 30
10 03/20/2015 03:20:36 -71.68, -46.99 108.10 03/20/2015 03:20:54 -71.68, -46.95 108.10 1.37 18
11 03/20/2015 04:11:34 71.52, 120.56 71.73 03/20/2015 04:10:22 71.53, 120.44 71.73 4.43 72
12 03/22/2015 08:04:06 -71.77,-117.99 108.88 03/22/2015 08:05:12 -71.76,-117.90 108.89 3.55 66
13 03/22/2015 08:55:04 71.64, 49.50 70.98 03/22/2015 08:54:39 71.66, 49.58 71.00 3.31 25




NCC Satellite Simultaneous Nadir Overpasses (SNOs) Prediction Service
